Martinsburg, WV

7:15 PM EST on January 18, 2018 (GMT -0500)
Eastern W Va Regional-Shepherd

Weather History for KMRB - August, 2012

Change the Weather History Date:

Monday, August 27, 2012

  Actual Average Record
Temperature  
Mean Temperature 78 °F 71 °F  
Max Temperature 88 °F 83 °F 98 °F (1948)
Min Temperature 67 °F 60 °F 46 °F (1942)
Degree Days  
Heating Degree Days 0 0  
Month to date heating degree days 0 0  
Since 1 June heating degree days 14 25  
Since 1 July heating degree days 0 1  
Cooling Degree Days 13 7  
Month to date cooling degree days 258 223  
Year to date cooling degree days 976 766  
Since 1 June cooling degree days 822 709  
Growing Degree Days 28 (Base 50)    
Moisture  
Dew Point 66 °F    
Average Humidity 69    
Maximum Humidity 97    
Minimum Humidity 40    
Precipitation  
Precipitation 0.00 in 0.09 in 2.15 in (1936)
Month to date precipitation 2.80 2.69  
Year to date precipitation 22.15 25.85  
Sea Level Pressure  
Sea Level Pressure 30.08 in    
Wind  
Wind Speed 4 mph (South)    
Max Wind Speed 9 mph    
Max Gust Speed 15 mph    
Visibility 10 miles    
Events      
T = Trace of Precipitation, MM = Missing Value Source: NWS Daily Summary

Daily Weather History Graph

Daily Weather History Graph

Search for Another Location

Airport or City:

Trip Planner

Search our weather history database for the weather conditions in past years. The results will help you decide how hot, cold, wet, or windy it might be!

Date:

Astronomy

Aug. 27, 2012 Rise Set
Actual Time 6:36 AM EDT 7:49 PM EDT
Civil Twilight 6:08 AM EDT 8:17 PM EDT
Nautical Twilight 5:35 AM EDT 8:50 PM EDT
Astronomical Twilight 5:00 AM EDT 9:25 PM EDT
Moon 5:07 PM EDT (8/27) 2:18 AM EDT (8/27)
Length of Visible Light 14h 09m
Length of Day
13h 13m
Waxing Gibbous, 82% of the Moon is Illuminated
Aug 27
Waxing Gibbous
Aug 31
Full
Sep 8
Last Quarter
Sep 15
New
Sep 22
First Quarter

Hourly Weather History & Observations

Time (EDT) Temp. Heat Index Dew Point Humidity Pressure Visibility Wind Dir Wind Speed Gust Speed Precip Events Conditions
12:53 AM 69.1 °F - 68.0 °F 96% 30.16 in 10.0 mi SSE 3.5 mph - N/A   Overcast
1:53 AM 69.1 °F - 66.9 °F 93% 30.15 in 10.0 mi SSE 5.8 mph - N/A   Overcast
2:53 AM 69.1 °F - 66.9 °F 93% 30.14 in 10.0 mi Calm Calm - N/A   Overcast
3:53 AM 69.1 °F - 66.0 °F 90% 30.14 in 10.0 mi SE 3.5 mph - N/A   Overcast
4:53 AM 68.0 °F - 66.0 °F 93% 30.14 in 10.0 mi Calm Calm - N/A   Overcast
5:53 AM 68.0 °F - 66.0 °F 93% 30.14 in 8.0 mi Calm Calm - N/A   Overcast
6:31 AM 68.0 °F - 66.2 °F 94% 30.15 in 6.0 mi Calm Calm - N/A   Overcast
6:53 AM 68.0 °F - 66.0 °F 93% 30.14 in 6.0 mi Calm Calm - N/A   Overcast
7:53 AM 68.0 °F - 66.0 °F 93% 30.16 in 7.0 mi Calm Calm - N/A   Overcast
8:27 AM 69.8 °F - 66.2 °F 88% 30.17 in 10.0 mi Calm Calm - N/A   Overcast
8:53 AM 70.0 °F - 66.9 °F 90% 30.16 in 10.0 mi Calm Calm - N/A   Overcast
9:35 AM 71.6 °F - 66.2 °F 83% 30.16 in 10.0 mi South 4.6 mph - N/A   Scattered Clouds
9:53 AM 73.0 °F - 66.9 °F 81% 30.15 in 10.0 mi SSW 4.6 mph - N/A   Partly Cloudy
10:53 AM 77.0 °F - 66.9 °F 71% 30.14 in 10.0 mi SSW 6.9 mph - N/A   Partly Cloudy
11:53 AM 78.1 °F - 66.9 °F 68% 30.13 in 10.0 mi Variable 4.6 mph - N/A   Partly Cloudy
12:53 PM 82.0 °F 84.9 °F 68.0 °F 62% 30.10 in 10.0 mi Variable 4.6 mph - N/A   Partly Cloudy
1:53 PM 82.9 °F 85.4 °F 66.9 °F 58% 30.07 in 10.0 mi Variable 3.5 mph - N/A   Partly Cloudy
2:53 PM 86.0 °F 86.8 °F 63.0 °F 46% 30.04 in 10.0 mi Variable 3.5 mph - N/A   Clear
3:53 PM 87.1 °F 87.0 °F 61.0 °F 41% 30.01 in 10.0 mi SSW 4.6 mph - N/A   Clear
4:53 PM 86.0 °F 85.7 °F 60.1 °F 41% 30.00 in 10.0 mi SW 5.8 mph - N/A   Clear
5:53 PM 87.1 °F 87.8 °F 63.0 °F 44% 29.98 in 10.0 mi South 8.1 mph - N/A   Partly Cloudy
6:53 PM 84.0 °F 85.8 °F 64.9 °F 53% 29.97 in 10.0 mi SSE 5.8 mph - N/A   Clear
7:53 PM 80.1 °F 82.1 °F 66.0 °F 62% 29.98 in 10.0 mi South 5.8 mph - N/A   Clear
8:53 PM 77.0 °F - 66.9 °F 71% 29.97 in 10.0 mi South 5.8 mph - N/A   Clear
9:53 PM 75.9 °F - 66.9 °F 74% 29.97 in 10.0 mi South 5.8 mph - N/A   Clear
10:53 PM 75.9 °F - 66.0 °F 71% 29.96 in 10.0 mi SSW 5.8 mph - N/A   Overcast
11:53 PM 75.0 °F - 66.0 °F 73% 29.95 in 10.0 mi South 4.6 mph - N/A   Mostly Cloudy